Location: La Fredeussais
(48.1780°N, 1.3980°W)
Time: 04:20:23
(UTC+00:00)

STARLINK-2695 - Pass Details

Date: 28 November 2021
Orbit: 546 x 548 km, 53.1° (Epoch: 25 January)

Event Time Altitude Azimuth Distance (km) Brightness Sun altitude
Rises 16:55:41 0° 193° (SSW) 2,704 7.8 -6.7°
Reaches altitude 10° 16:58:30 10° 174° (S) 1,816 6.5 -7.1°
Maximum altitude 17:01:13 17° 132° (SE) 1,415 5.5 -7.5°
Drops below altitude 10° 17:03:58 10° 90° (E) 1,824 5.7 -8.0°
Enters shadow 17:04:20 - 87° (E) 1,924 5.8 -8.0°
